Thief River Falls, MN

7:58 AM CDT on March 30, 2017 (GMT -0500)
Thief River Falls Regional

Weather History for KTVF - December, 2013

Change the Weather History Date:

Friday, December 13, 2013

  Actual Average Record
Temperature  
Mean Temperature -4 °F -  
Max Temperature -2 °F 21 °F 44 °F (2002)
Min Temperature -7 °F 8 °F -23 °F (1989)
Degree Days  
Heating Degree Days 70    
Moisture  
Dew Point -17 °F    
Average Humidity 58    
Maximum Humidity 84    
Minimum Humidity 34    
Precipitation  
Precipitation 0.00 in - - ()
Sea Level Pressure  
Sea Level Pressure 30.31 in    
Wind  
Wind Speed 11 mph (NE)    
Max Wind Speed 15 mph    
Max Gust Speed -    
Visibility 9 miles    
Events      
Averages and records for this station are not official NWS values.
T = Trace of Precipitation, MM = Missing Value Source: NWS Daily Summary

Daily Weather History Graph

Daily Weather History Graph

Search for Another Location

Airport or City:

Trip Planner

Search our weather history database for the weather conditions in past years. The results will help you decide how hot, cold, wet, or windy it might be!

Date:

Astronomy

Dec. 13, 2013 Rise Set
Actual Time 8:06 AM CST 4:31 PM CST
Civil Twilight 7:30 AM CST 5:07 PM CST
Nautical Twilight 6:50 AM CST 5:47 PM CST
Astronomical Twilight 6:12 AM CST 6:25 PM CST
Moon 2:25 PM CST (12/13) 4:18 AM CST (12/13)
Length of Visible Light 9h 37m
Length of Day
8h 24m
Waxing Gibbous, 88% of the Moon is Illuminated
Dec 13
Waxing Gibbous
Dec 17
Full
Dec 25
Last Quarter
Jan 1
New
Jan 7
First Quarter

Hourly Weather History & Observations

Time (CST) Temp. Windchill Dew Point Humidity Pressure Visibility Wind Dir Wind Speed Gust Speed Precip Events Conditions
12:15 AM -2.2 °F -18.0 °F -11.2 °F 66% 30.24 in 10.0 mi NNE 9.2 mph - N/A   Unknown
12:35 AM -4.0 °F -21.2 °F -14.8 °F 60% 30.25 in 10.0 mi NNE 10.4 mph - N/A   Unknown
12:55 AM -5.8 °F -23.4 °F -14.8 °F 65% 30.26 in 10.0 mi NNE 10.4 mph - N/A   Unknown
1:15 AM -5.8 °F -24.4 °F -14.8 °F 65% 30.25 in 5.0 mi North 11.5 mph - N/A   Unknown
1:35 AM -5.8 °F -24.4 °F -14.8 °F 65% 30.25 in 4.0 mi NNE 11.5 mph - N/A   Unknown
1:55 AM -5.8 °F -24.4 °F -13.0 °F 71% 30.25 in 5.0 mi NNE 11.5 mph - N/A   Unknown
2:15 AM -7.6 °F -27.5 °F -14.8 °F 71% 30.26 in 5.0 mi NNE 12.7 mph - N/A   Unknown
2:35 AM -7.6 °F -27.5 °F -14.8 °F 71% 30.26 in 2.0 mi NNE 12.7 mph - N/A   Unknown
2:55 AM -7.6 °F -26.6 °F -11.2 °F 84% 30.26 in 3.0 mi NNE 11.5 mph - N/A   Unknown
3:15 AM -7.6 °F -25.7 °F -14.8 °F 71% 30.26 in 3.0 mi NNE 10.4 mph - N/A   Unknown
3:35 AM -7.6 °F -25.7 °F -11.2 °F 84% 30.25 in 3.0 mi NNE 10.4 mph - N/A   Unknown
3:55 AM -7.6 °F -27.5 °F -14.8 °F 71% 30.25 in 3.0 mi NE 12.7 mph - N/A   Unknown
4:15 AM -7.6 °F -28.3 °F -13.0 °F 77% 30.24 in 3.0 mi NNE 13.8 mph - N/A   Unknown
4:35 AM -7.6 °F -29.1 °F -13.0 °F 77% 30.24 in 5.0 mi NNE 15.0 mph - N/A   Unknown
4:55 AM -7.6 °F -26.6 °F -14.8 °F 71% 30.25 in 6.0 mi NE 11.5 mph - N/A   Unknown
5:15 AM -7.6 °F -28.3 °F - N/A% 30.24 in 10.0 mi NE 13.8 mph - N/A   Unknown
5:35 AM -7.6 °F -27.5 °F - N/A% 30.24 in 10.0 mi NE 12.7 mph - N/A   Unknown
5:55 AM -7.6 °F -22.1 °F -29.2 °F 34% 30.26 in 10.0 mi NE 6.9 mph - N/A   Unknown
6:15 AM -7.6 °F -26.6 °F -25.6 °F 41% 30.27 in 10.0 mi NE 11.5 mph - N/A   Unknown
6:35 AM -7.6 °F -25.7 °F -20.2 °F 54% 30.27 in 10.0 mi NE 10.4 mph - N/A   Unknown
6:55 AM -7.6 °F -27.5 °F -20.2 °F 54% 30.28 in 10.0 mi NE 12.7 mph - N/A   Unknown
7:15 AM -7.6 °F -23.4 °F -20.2 °F 54% 30.28 in 10.0 mi NE 8.1 mph - N/A   Unknown
7:35 AM -7.6 °F -27.5 °F -20.2 °F 54% 30.28 in 10.0 mi NE 12.7 mph - N/A   Unknown
7:55 AM -7.6 °F -25.7 °F -18.4 °F 59% 30.29 in 10.0 mi NE 10.4 mph - N/A   Unknown
8:15 AM -7.6 °F -24.6 °F -18.4 °F 59% 30.30 in 10.0 mi NE 9.2 mph - N/A   Unknown
8:35 AM -7.6 °F -26.6 °F -18.4 °F 59% 30.30 in 10.0 mi NE 11.5 mph - N/A   Unknown
8:55 AM -7.6 °F -27.5 °F -18.4 °F 59% 30.31 in 10.0 mi NE 12.7 mph - N/A   Unknown
9:15 AM -7.6 °F -25.7 °F -18.4 °F 59% 30.32 in 10.0 mi NE 10.4 mph - N/A   Unknown
9:35 AM -7.6 °F -23.4 °F -18.4 °F 59% 30.32 in 10.0 mi NE 8.1 mph - N/A   Unknown
9:55 AM -7.6 °F -27.5 °F -18.4 °F 59% 30.33 in 10.0 mi NE 12.7 mph - N/A   Unknown
10:15 AM -7.6 °F -26.6 °F -18.4 °F 59% 30.33 in 10.0 mi NE 11.5 mph - N/A   Unknown
10:35 AM -7.6 °F -26.6 °F -18.4 °F 59% 30.33 in 10.0 mi ENE 11.5 mph - N/A   Unknown
10:55 AM -7.6 °F -28.3 °F -16.6 °F 65% 30.33 in 10.0 mi ENE 13.8 mph - N/A   Unknown
11:15 AM -7.6 °F -27.5 °F -18.4 °F 59% 30.34 in 10.0 mi ENE 12.7 mph - N/A   Unknown
11:35 AM -5.8 °F -24.4 °F -18.4 °F 55% 30.33 in 10.0 mi ENE 11.5 mph - N/A   Unknown
11:55 AM -5.8 °F -24.4 °F -16.6 °F 60% 30.33 in 10.0 mi ENE 11.5 mph - N/A   Unknown
12:15 PM -5.8 °F -25.2 °F -18.4 °F 55% 30.33 in 10.0 mi ENE 12.7 mph - N/A   Unknown
12:35 PM -5.8 °F -23.4 °F -16.6 °F 60% 30.33 in 10.0 mi NE 10.4 mph - N/A   Unknown
12:55 PM -5.8 °F -23.4 °F -18.4 °F 55% 30.33 in 10.0 mi NE 10.4 mph - N/A   Unknown
1:15 PM -5.8 °F -24.4 °F -16.6 °F 60% 30.32 in 10.0 mi NE 11.5 mph - N/A   Unknown
1:35 PM -5.8 °F -24.4 °F -18.4 °F 55% 30.32 in 10.0 mi NE 11.5 mph - N/A   Unknown
1:55 PM -5.8 °F -25.2 °F -18.4 °F 55% 30.32 in 10.0 mi NE 12.7 mph - N/A   Unknown
2:15 PM -5.8 °F -22.4 °F -18.4 °F 55% 30.32 in 10.0 mi NNE 9.2 mph - N/A   Unknown
2:35 PM -5.8 °F -22.4 °F -18.4 °F 55% 30.32 in 10.0 mi NE 9.2 mph - N/A   Unknown
2:55 PM -5.8 °F -21.2 °F -18.4 °F 55% 30.32 in 10.0 mi ENE 8.1 mph - N/A   Unknown
3:15 PM -4.0 °F -19.0 °F -18.4 °F 50% 30.33 in 10.0 mi ENE 8.1 mph - N/A   Unknown
3:35 PM -4.0 °F -19.0 °F -16.6 °F 55% 30.33 in 10.0 mi ENE 8.1 mph - N/A   Unknown
3:55 PM -2.2 °F -18.0 °F -18.4 °F 46% 30.33 in 10.0 mi ENE 9.2 mph - N/A   Unknown
4:15 PM -2.2 °F -15.6 °F -14.8 °F 55% 30.34 in 10.0 mi ENE 6.9 mph - N/A   Unknown
4:35 PM -2.2 °F -18.0 °F -16.6 °F 50% 30.34 in 10.0 mi NE 9.2 mph - N/A   Unknown
4:55 PM -2.2 °F -18.9 °F -16.6 °F 50% 30.35 in 10.0 mi NE 10.4 mph - N/A   Unknown
5:15 PM -2.2 °F -18.0 °F -14.8 °F 55% 30.35 in 10.0 mi NE 9.2 mph - N/A   Unknown
5:35 PM -2.2 °F -19.9 °F -18.4 °F 46% 30.36 in 10.0 mi NE 11.5 mph - N/A   Unknown
5:55 PM -2.2 °F -18.9 °F -16.6 °F 50% 30.36 in 10.0 mi NNE 10.4 mph - N/A   Unknown
6:15 PM -2.2 °F -18.9 °F -16.6 °F 50% 30.36 in 10.0 mi NE 10.4 mph - N/A   Unknown
6:35 PM -2.2 °F -18.9 °F -16.6 °F 50% 30.37 in 10.0 mi NE 10.4 mph - N/A   Unknown
6:55 PM -2.2 °F -15.6 °F -16.6 °F 50% 30.37 in 10.0 mi NE 6.9 mph - N/A   Unknown
7:15 PM -4.0 °F -19.0 °F -16.6 °F 55% 30.37 in 10.0 mi NE 8.1 mph - N/A   Unknown
7:35 PM -4.0 °F -21.2 °F -16.6 °F 55% 30.37 in 10.0 mi NE 10.4 mph - N/A   Unknown
7:55 PM -4.0 °F -19.0 °F -16.6 °F 55% 30.37 in 10.0 mi NE 8.1 mph - N/A   Unknown
8:15 PM -4.0 °F -21.2 °F -16.6 °F 55% 30.37 in 10.0 mi ENE 10.4 mph - N/A   Unknown
8:35 PM -4.0 °F -17.8 °F -16.6 °F 55% 30.37 in 10.0 mi NE 6.9 mph - N/A   Unknown
8:55 PM -4.0 °F -20.2 °F -16.6 °F 55% 30.37 in 10.0 mi ENE 9.2 mph - N/A   Unknown
9:15 PM -4.0 °F -21.2 °F -18.4 °F 50% 30.36 in 10.0 mi ENE 10.4 mph - N/A   Unknown
9:35 PM -4.0 °F -19.0 °F -16.6 °F 55% 30.35 in 10.0 mi ENE 8.1 mph - N/A   Unknown
9:55 PM -4.0 °F -20.2 °F -18.4 °F 50% 30.35 in 10.0 mi East 9.2 mph - N/A   Unknown
10:15 PM -4.0 °F -17.8 °F -16.6 °F 55% 30.35 in 10.0 mi East 6.9 mph - N/A   Unknown
10:35 PM -4.0 °F -20.2 °F -18.4 °F 50% 30.35 in 10.0 mi ENE 9.2 mph - N/A   Unknown
10:55 PM -4.0 °F -19.0 °F -16.6 °F 55% 30.35 in 10.0 mi East 8.1 mph - N/A   Unknown
11:15 PM -4.0 °F -17.8 °F -16.6 °F 55% 30.34 in 10.0 mi ENE 6.9 mph - N/A   Unknown
11:35 PM -4.0 °F -20.2 °F -14.8 °F 60% 30.34 in 10.0 mi East 9.2 mph - N/A   Unknown
11:55 PM -4.0 °F -19.0 °F -16.6 °F 55% 30.33 in 10.0 mi East 8.1 mph - N/A   Unknown